Weather observations for the past three days for
Frederick, Frederick Municipal Airport
Imperial (Metric)
Date Time (cdt) Wind (mph) Vis. (mi.) Weather Sky Cond. Temperature (ºF) Relative Humidity Wind Chill (°F) Heat Index (°F) Pressure Precipitation (in)
Air Dwpt 6 hour altimeter (in) sea level (mb) 1 hr 3 hr 6 hr
Max. Min.
14 00:53 NE 12 10.00 Fair CLR 77 72 93 75.9 85% 78 30.01 1014.1
13 23:53 SE 7 10.00 Fair CLR 75.9 72 88% 76 29.95 1012.1
13 22:53 SE 8 10.00 Fair CLR 78.1 72 82% 80 29.93 1011.4
13 21:53 SE 7 10.00 Fair CLR 80.1 72 76% 84 29.89 1010.2
13 20:53 SE 8 10.00 Fair CLR 82.9 71.1 67% 88 29.87 1009.3
13 19:53 S 12 10.00 Fair CLR 91 70 50% 97 29.86 1009.2
13 18:53 S 12 10.00 Fair CLR 93 69.1 95 91 46% 98 29.86 1009.0
13 17:53 S 14 G 24 10.00 Fair CLR 93.9 69.1 44% 99 29.88 1009.7
13 16:53 S 14 G 20 10.00 Fair CLR 95 69.1 43% 101 29.88 1010.0
13 15:53 S 13 10.00 Fair CLR 93.9 70 46% 100 29.9 1010.4
13 14:53 S 12 10.00 Fair CLR 93.9 71.1 48% 101 29.91 1010.9
13 13:53 S 12 10.00 Fair CLR 91.9 71.1 51% 99 29.93 1011.6
13 12:53 S 13 10.00 Fair CLR 91 71.1 91 71.1 52% 98 29.95 1012.1
13 11:53 S 7 10.00 Fair CLR 88 72 59% 95 29.95 1012.4
13 10:53 SW 12 10.00 Fair CLR 86 72 63% 92 29.96 1012.4
13 09:53 SW 12 10.00 Fair CLR 82.9 72 70% 88 29.96 1012.7
13 08:53 SW 10 10.00 Fair CLR 78.1 72 82% 80 29.96 1012.5
13 07:53 S 7 7.00 Fair CLR 73.9 72 94% 29.94 1012.0
13 05:53 S 5 6.00 Fog/Mist CLR 70 69.1 97% 29.91 1011.1
13 04:53 SE 5 7.00 Fair CLR 71.1 70 96% 29.9 1010.6
13 03:53 S 6 8.00 Fair CLR 72 70 94% 29.9 1010.5
13 02:53 S 8 10.00 Fair CLR 73 70 90% 29.89 1010.4
13 01:53 S 6 10.00 Fair CLR 73 70 90% 29.9 1010.6
13 00:53 S 8 10.00 Fair CLR 73.9 71.1 89.1 73.9 91% 29.92 1011.1
12 23:53 SE 8 10.00 Fair CLR 75 71.1 88% 75 29.92 1011.3
12 22:53 SE 8 10.00 Fair CLR 75.9 72 88% 76 29.92 1011.2
12 21:53 SE 7 10.00 Fair CLR 77 71.1 82% 79 29.9 1010.6
12 20:53 S 6 10.00 Fair CLR 82 71.1 69% 86 29.89 1010.2
12 19:53 S 9 10.00 Fair CLR 86 69.1 57% 90 29.89 1010.1
12 18:53 S 12 G 17 10.00 Fair CLR 89.1 68 90 82.9 50% 93 29.89 1010.2
12 17:53 S 13 10.00 A Few Clouds FEW047 90 70 52% 95 29.89 1010.2
12 16:53 S 6 10.00 Fair CLR 88 69.1 54% 92 29.91 1011.1
12 15:53 S 9 10.00 A Few Clouds FEW044 88 69.1 54% 92 29.94 1011.9
12 14:53 S 10 10.00 A Few Clouds FEW038 FEW050 86 70 59% 91 29.96 1012.6
12 13:53 Vrbl 5 10.00 Partly Cloudy FEW034 SCT046 86 70 59% 91 29.98 1013.4
12 12:53 SW 7 10.00 Mostly Cloudy BKN030 BKN040 82.9 70 84 68 65% 87 29.99 1014.0
12 11:53 SW 7 10.00 Mostly Cloudy FEW027 BKN036 82 70 67% 86 30 1014.3
12 10:53 Vrbl 6 10.00 Partly Cloudy SCT019 80.1 71.1 74% 84 30.01 1014.4
12 09:53 S 7 8.00 Partly Cloudy SCT011 77 71.1 82% 79 30.01 1014.8
12 08:53 SE 5 8.00 Fair CLR 73.9 70 88% 30.01 1014.7
12 06:53 NE 3 5.00 Fog/Mist FEW026 SCT046 68 66.9 70 66 96% 30 1014.2
12 05:53 E 3 9.00 Fair CLR 66.9 66 97% 29.99 1014.1
12 04:53 E 3 10.00 Fair CLR 66.9 66 97% 29.97 1013.6
12 03:53 E 5 4.00 Fog/Mist CLR 66.9 66.9 100% 29.96 1013.1
12 02:53 E 6 0.50 Fog VV002 68 68 100% 29.95 1012.8
12 01:53 E 5 5.00 Fog/Mist CLR 69.1 68 96% 29.97 1013.3
12 00:53 Calm 7.00 Fair CLR 69.1 66.9 75.9 68 93% 29.98 1013.9
11 23:53 Calm 6.00 Fog/Mist CLR 68 66.9 96% 29.98 1013.7
11 22:53 Calm 8.00 Fair CLR 70 69.1 97% 29.97 1013.3
11 21:53 NE 6 8.00 Fair CLR 71.1 69.1 94% 29.94 1012.5
11 20:53 E 5 10.00 Fair CLR 73 70 90% 29.92 1011.7
11 19:53 E 9 10.00 Fair CLR 75 69.1 82% 75 29.9 1011.1
11 18:53 E 12 10.00 Fair CLR 75.9 70 75.9 68 82% 77 29.89 1010.6 0.76
11 17:53 NE 9 10.00 Partly Cloudy FEW035 FEW050 SCT070 72 69.1 91% 29.91 1011.2 0.04
11 16:53 NE 8 7.00 Light Rain OVC100 69.1 66.9 93% 29.93 1012.3 0.04
11 15:53 NW 9 4.00 Thunderstorm in Vicinity Light Rain Fog/Mist FEW032 BKN041 OVC070 68 66.9 96% 29.95 1012.8 0.47 0.68
11 14:53 SW 13 G 20 2.00 Thunderstorm in Vicinity Rain Fog/Mist FEW005 BKN029 OVC038 72 71.1 97% 29.95 1012.7 0.08
11 13:53 N 8 3.00 Rain Fog/Mist BKN024 BKN038 OVC070 72 70 94% 29.95 1012.6 0.13
11 12:53 Calm 0.75 Heavy Rain Fog/Mist SCT016 OVC030 70 69.1 73.9 69.1 97% 29.96 1013.1 0.29 0.29
11 11:53 E 5 10.00 Overcast OVC014 73 68 84% 29.95 1012.6
11 10:53 E 9 10.00 Overcast BKN013 BKN021 OVC028 73 68 84% 29.95 1012.4
11 09:53 E 9 10.00 Partly Cloudy FEW011 SCT065 SCT095 72 66.9 84% 29.95 1012.5
11 08:53 E 6 10.00 Partly Cloudy FEW014 SCT120 70 66.9 90% 29.94 1012.1
11 07:53 E 7 10.00 A Few Clouds FEW018 69.1 66.9 93% 29.93 1011.6
11 06:53 E 7 8.00 Overcast FEW011 OVC017 69.1 66.9 73 69.1 93% 29.92 1011.6 0.02 0.02
11 05:53 E 7 8.00 Overcast FEW050 OVC100 70 66 87% 29.92 1011.4
11 04:53 E 7 5.00 Fog/Mist FEW120 71.1 70 96% 29.91 1011.0
11 03:53 E 9 6.00 Fog/Mist SCT021 BKN110 71.1 70 96% 29.91 1011.1
11 02:53 SE 7 7.00 Fair CLR 72 69.1 91% 29.91 1010.9
11 01:53 Calm 7.00 Overcast OVC025 73 69.1 87% 29.93 1011.6
Date Time (cdt) Wind (mph) Vis. (mi.) Weather Sky Cond. Air Dwpt Max. Min. Relative Humidity Wind Chill (°F) Heat Index (°F) altimeter (in) sea level (mb) 1 hr 3 hr 6 hr
6 hour
Temperature (ºF) Pressure Precipitation (in)